Nashua, NH

5:48 AM EDT on April 29, 2017 (GMT -0400)
Boire

Weather History for KASH - October, 2014

Change the Weather History Date:

Thursday, October 9, 2014

  Actual Average Record
Temperature  
Mean Temperature 52 °F -  
Max Temperature 63 °F 63 °F 84 °F (2011)
Min Temperature 41 °F 39 °F 21 °F (1953)
Degree Days  
Heating Degree Days 13    
Growing Degree Days 2 (Base 50)    
Moisture  
Dew Point 36 °F    
Average Humidity 57    
Maximum Humidity 89    
Minimum Humidity 31    
Precipitation  
Precipitation 0.00 in - - ()
Sea Level Pressure  
Sea Level Pressure 30.66 in    
Wind  
Wind Speed 5 mph (West)    
Max Wind Speed 16 mph    
Max Gust Speed 22 mph    
Visibility 10 miles    
Events      
Averages and records for this station are not official NWS values.
T = Trace of Precipitation, MM = Missing Value Source: NWS Daily Summary

Daily Weather History Graph

Daily Weather History Graph

Search for Another Location

Airport or City:

Trip Planner

Search our weather history database for the weather conditions in past years. The results will help you decide how hot, cold, wet, or windy it might be!

Date:

Astronomy

Oct. 09, 2014 Rise Set
Actual Time 6:52 AM EDT 6:13 PM EDT
Civil Twilight 6:23 AM EDT 6:41 PM EDT
Nautical Twilight 5:51 AM EDT 7:14 PM EDT
Astronomical Twilight 5:18 AM EDT 7:47 PM EDT
Moon 7:05 PM EDT (10/9) 8:05 AM EDT (10/9)
Length of Visible Light 12h 17m
Length of Day
11h 21m
Full, 98% of the Moon is Illuminated
Oct 9
Full
Oct 15
Last Quarter
Oct 23
New
Oct 30
First Quarter
Nov 6
Full

Hourly Weather History & Observations

Time (EDT) Temp. Dew Point Humidity Pressure Visibility Wind Dir Wind Speed Gust Speed Precip Events Conditions
12:51 AM 54.9 °F 34.9 °F 47% 30.61 in 10.0 mi West 8.1 mph - N/A   Clear
1:51 AM 54.0 °F 34.9 °F 49% 30.62 in 10.0 mi West 9.2 mph - N/A   Clear
2:51 AM 50.9 °F 34.9 °F 54% 30.61 in 10.0 mi Calm Calm - N/A   Clear
3:51 AM 46.9 °F 36.0 °F 66% 30.62 in 10.0 mi Calm Calm - N/A   Clear
4:51 AM 47.8 °F 34.9 °F 61% 30.64 in 10.0 mi Calm Calm - N/A   Clear
5:51 AM 43.0 °F 36.9 °F 79% 30.66 in 10.0 mi Calm Calm - N/A   Clear
6:51 AM 41.0 °F 36.9 °F 85% 30.68 in 10.0 mi Calm Calm - N/A   Clear
7:51 AM 46.9 °F 36.9 °F 68% 30.69 in 10.0 mi Calm Calm - N/A   Clear
8:51 AM 52.9 °F 37.9 °F 57% 30.70 in 10.0 mi Calm Calm - N/A   Clear
9:51 AM 56.8 °F 34.9 °F 44% 30.69 in 10.0 mi West 6.9 mph - N/A   Clear
10:51 AM 59.0 °F 34.0 °F 39% 30.68 in 10.0 mi West 10.4 mph 18.4 mph N/A   Clear
11:51 AM 59.9 °F 32.0 °F 35% 30.66 in 10.0 mi WNW 16.1 mph 21.9 mph N/A   Clear
12:51 PM 61.9 °F 31.1 °F 31% 30.64 in 10.0 mi West 15.0 mph 20.7 mph N/A   Clear
1:51 PM 63.0 °F 32.0 °F 31% 30.63 in 10.0 mi West 12.7 mph 18.4 mph N/A   Clear
2:51 PM 63.9 °F 32.9 °F 31% 30.62 in 10.0 mi West 9.2 mph 18.4 mph N/A   Partly Cloudy
3:51 PM 63.9 °F 34.9 °F 34% 30.61 in 10.0 mi WSW 8.1 mph - N/A   Clear
4:51 PM 63.0 °F 36.0 °F 37% 30.62 in 10.0 mi West 8.1 mph - N/A   Partly Cloudy
5:51 PM 61.0 °F 36.9 °F 41% 30.63 in 10.0 mi Calm Calm - N/A   Clear
6:51 PM 54.9 °F 39.9 °F 57% 30.65 in 10.0 mi Calm Calm - N/A   Clear
7:51 PM 50.0 °F 41.0 °F 71% 30.67 in 10.0 mi Calm Calm - N/A   Clear
8:51 PM 47.8 °F 41.0 °F 77% 30.68 in 10.0 mi Calm Calm - N/A   Clear
9:51 PM 45.9 °F 41.9 °F 86% 30.69 in 10.0 mi Calm Calm - N/A   Clear
10:51 PM 43.0 °F 39.9 °F 89% 30.72 in 10.0 mi Calm Calm - N/A   Clear
11:51 PM 43.0 °F 39.9 °F 89% 30.74 in 10.0 mi Calm Calm - N/A   Clear